sat.trackr.live / text

‹ back to catalog

BSAT-4A

NORAD 42951 · 2017-059B

PAYLOAD ACTIVE UNKNOWN

§ Identity

Operator
Country
JPN
Launch date
2017-09-29
Launch site
FRGUI
Launch vehicle
Mass (kg)
RCS (m²)

Purposes: comms

External: N2YO · Heavens-Above · Gunter

§ Orbital elements

Epoch: 2026-05-24T23:07:53.761152Z

Period
1,436.07 min
Inclination
0.0365°
Eccentricity
0.0004484
Mean motion
1.00273835 rev/d
Perigee alt
35,767.1 km
Apogee alt
35,804.9 km
Semi-major
42,164.2 km
B*
0.0000e+0
RAAN
347.6556°
Arg perigee
70.0468°
Mean anomaly
281.6549°
Rev number
3,156

§ Raw data

BSAT-4A1 42951U 17059B   26144.96381668 -.00000353  00000+0  00000+0 0  99972 42951   0.0365 347.6556 0004484  70.0468 281.6549  1.00273835 31567

JSON: /api/v1/satellites/42951 · /tle

For live sub-satellite position, see the globe view (requires WebGL).

§ Visibility from observer

Set your observer location to see the next 7 days of passes ≥ 10°. The values pass through the URL so the page stays shareable.

No JS? Fill the form by hand. The geolocation button needs JavaScript.